SWA2540 KMDW-KFLL

Flight info

Callsign SWA2540
Flight time N/A
Altitude 37000
Route DENNT DARCY DREGS DUMGE SCOTO SWAPP Q79 ZPLEN TEEKY3
Aircraft B738/M-SDE2E3FGHIRWXY/LB1

Departure

Time 2026-05-06 16:47
Airport Chicago Midway International Airport (KMDW)

Arrival

Time N/A
Airport Fort Lauderdale Hollywood International Airport (KFLL)
Time Latitude Longitude Altitude Speed Heading
2026-05-06 16:42 41.78927 -87.74266 613 ft 0 kts 172°
2026-05-06 16:44 41.78923 -87.74268 613 ft 1 kts 199°
2026-05-06 16:44 41.78919 -87.74351 613 ft 17 kts 283°
2026-05-06 16:44 41.78994 -87.74361 613 ft 11 kts 40°
2026-05-06 16:45 41.79015 -87.74336 613 ft 2 kts 40°
2026-05-06 16:45 41.79026 -87.74324 613 ft 2 kts 39°
2026-05-06 16:45 41.79037 -87.74311 612 ft 2 kts 39°
2026-05-06 16:45 41.79054 -87.74309 612 ft 5 kts 314°
2026-05-06 16:46 41.79095 -87.74417 613 ft 17 kts 255°
2026-05-06 16:46 41.78879 -87.74714 613 ft 85 kts 224°
2026-05-06 16:46 41.78256 -87.75500 619 ft 154 kts 222°
2026-05-06 16:46 41.77390 -87.76605 1047 ft 181 kts 228°
2026-05-06 16:47 41.76463 -87.77804 1815 ft 198 kts 221°
2026-05-06 16:47 41.75135 -87.78572 2311 ft 229 kts 185°
2026-05-06 16:47 41.73557 -87.78018 3011 ft 251 kts 148°
2026-05-06 16:47 41.72082 -87.76635 3754 ft 267 kts 153°
2026-05-06 16:48 41.70295 -87.76015 4651 ft 271 kts 184°
2026-05-06 16:48 41.68447 -87.76274 5712 ft 272 kts 188°
2026-05-06 16:48 41.66547 -87.76338 6672 ft 280 kts 179°
2026-05-06 16:48 41.64637 -87.76112 7714 ft 282 kts 176°
2026-05-06 16:49 41.62672 -87.75807 8705 ft 286 kts 177°
2026-05-06 16:49 41.60717 -87.75494 9678 ft 289 kts 178°
2026-05-06 16:49 41.58690 -87.75163 10516 ft 298 kts 178°
2026-05-06 16:49 41.56591 -87.74828 10947 ft 320 kts 178°
2026-05-06 16:50 41.54295 -87.74474 11474 ft 339 kts 178°
2026-05-06 16:50 41.51934 -87.74090 12239 ft 349 kts 178°
2026-05-06 16:50 41.49487 -87.73679 13100 ft 356 kts 178°
2026-05-06 16:50 41.47040 -87.73265 13990 ft 361 kts 179°
2026-05-06 16:51 41.44542 -87.72849 14926 ft 363 kts 179°
2026-05-06 16:51 41.42043 -87.72467 15886 ft 363 kts 183°
2026-05-06 16:51 41.39534 -87.72392 16747 ft 362 kts 187°
2026-05-06 16:51 41.37018 -87.72430 17598 ft 365 kts 188°
2026-05-06 16:52 41.34492 -87.72450 18324 ft 371 kts 188°
2026-05-06 16:52 41.31916 -87.72463 19264 ft 370 kts 188°
2026-05-06 16:52 41.29354 -87.72472 20049 ft 374 kts 188°
2026-05-06 16:52 41.26743 -87.72474 20745 ft 378 kts 189°
2026-05-06 16:53 41.24092 -87.72471 21481 ft 381 kts 189°
2026-05-06 16:53 41.21464 -87.72457 22349 ft 380 kts 190°
2026-05-06 16:53 41.18812 -87.72332 23033 ft 388 kts 186°
2026-05-06 16:53 41.16059 -87.71973 23596 ft 397 kts 185°
2026-05-06 16:54 41.13331 -87.71561 24257 ft 399 kts 185°
2026-05-06 16:54 41.10592 -87.71171 24919 ft 400 kts 186°
2026-05-06 16:54 41.07818 -87.70782 25550 ft 402 kts 187°
2026-05-06 16:54 41.04998 -87.70398 25949 ft 410 kts 187°
2026-05-06 16:55 41.02146 -87.70028 26634 ft 409 kts 188°
2026-05-06 16:55 40.99377 -87.69640 27458 ft 406 kts 188°
2026-05-06 16:55 40.97502 -87.69379 27687 ft 410 kts 189°
2026-05-06 16:55 40.96337 -87.69230 27824 ft 413 kts 189°
2026-05-06 16:56 40.93480 -87.68857 28379 ft 416 kts 189°
2026-05-06 16:56 40.90607 -87.68459 28907 ft 419 kts 189°
2026-05-06 16:56 40.87738 -87.68079 29370 ft 422 kts 190°
2026-05-06 16:56 40.84827 -87.67707 29752 ft 428 kts 190°
2026-05-06 16:57 40.81879 -87.67320 30376 ft 427 kts 190°
2026-05-06 16:57 40.78946 -87.66904 31222 ft 420 kts 191°
2026-05-06 16:57 40.76044 -87.66528 31585 ft 422 kts 192°
2026-05-06 16:57 40.73120 -87.66161 32091 ft 424 kts 192°
2026-05-06 16:58 40.70145 -87.65782 32514 ft 426 kts 192°
2026-05-06 16:58 40.67216 -87.65389 33051 ft 425 kts 192°
2026-05-06 16:58 40.64271 -87.64986 33656 ft 422 kts 192°
2026-05-06 16:58 40.61382 -87.64611 34236 ft 419 kts 192°
2026-05-06 16:59 40.58494 -87.64257 34704 ft 419 kts 193°
2026-05-06 16:59 40.55593 -87.63904 35133 ft 420 kts 192°
2026-05-06 16:59 40.52687 -87.63530 35697 ft 417 kts 192°
2026-05-06 16:59 40.49866 -87.63159 36361 ft 410 kts 192°
2026-05-06 17:00 40.47016 -87.62806 36595 ft 415 kts 192°
2026-05-06 17:00 40.44118 -87.62433 36790 ft 420 kts 192°
2026-05-06 17:00 40.41199 -87.62043 37022 ft 425 kts 191°
2026-05-06 17:01 40.35292 -87.61226 37012 ft 430 kts 188°
2026-05-06 17:01 40.32320 -87.60410 37009 ft 441 kts 182°
2026-05-06 17:01 40.29365 -87.59148 36999 ft 455 kts 174°
2026-05-06 17:01 40.26459 -87.57416 37018 ft 466 kts 171°
2026-05-06 17:02 40.23543 -87.55569 37020 ft 473 kts 171°
2026-05-06 17:02 40.17603 -87.51793 37006 ft 469 kts 171°
2026-05-06 17:03 40.11716 -87.48092 37010 ft 478 kts 171°
2026-05-06 17:03 40.05617 -87.44278 37003 ft 496 kts 170°
2026-05-06 17:04 39.99379 -87.40328 36986 ft 494 kts 170°
2026-05-06 17:04 39.93240 -87.36280 36984 ft 500 kts 168°
2026-05-06 17:05 39.87064 -87.32101 36991 ft 501 kts 169°
2026-05-06 17:05 39.80931 -87.27956 36996 ft 495 kts 169°
2026-05-06 17:06 39.74792 -87.23846 36998 ft 494 kts 169°
2026-05-06 17:06 39.68703 -87.19780 37002 ft 497 kts 169°
2026-05-06 17:07 39.62535 -87.15667 37005 ft 498 kts 169°
2026-05-06 17:07 39.56380 -87.11572 37009 ft 497 kts 169°
2026-05-06 17:08 39.50259 -87.07496 37004 ft 493 kts 169°
2026-05-06 17:08 39.44198 -87.03482 37011 ft 495 kts 170°
2026-05-06 17:09 39.37991 -86.99400 37007 ft 503 kts 169°
2026-05-06 17:09 39.31847 -86.95318 37001 ft 491 kts 169°
2026-05-06 17:10 39.25760 -86.91305 37010 ft 492 kts 170°
2026-05-06 17:10 39.19649 -86.87312 37001 ft 500 kts 169°
2026-05-06 17:11 39.13547 -86.83248 37008 ft 497 kts 168°
2026-05-06 17:11 39.07494 -86.79103 37008 ft 495 kts 169°
2026-05-06 17:12 39.01401 -86.74963 37006 ft 493 kts 169°
2026-05-06 17:12 38.95313 -86.70847 37008 ft 497 kts 169°
2026-05-06 17:13 38.89183 -86.66718 37006 ft 501 kts 168°
2026-05-06 17:13 38.83078 -86.62581 37007 ft 493 kts 169°
2026-05-06 17:14 38.76961 -86.58502 37010 ft 502 kts 169°
2026-05-06 17:14 38.70790 -86.54329 37001 ft 498 kts 168°
2026-05-06 17:15 38.64636 -86.50211 37012 ft 502 kts 168°
2026-05-06 17:15 38.58555 -86.46124 37002 ft 498 kts 168°
2026-05-06 17:16 38.52443 -86.42045 37000 ft 497 kts 168°
2026-05-06 17:16 38.46311 -86.37968 37002 ft 496 kts 168°
2026-05-06 17:17 38.40222 -86.33908 36992 ft 495 kts 169°
2026-05-06 17:17 38.34073 -86.29839 36994 ft 501 kts 168°
2026-05-06 17:18 38.27914 -86.25751 36994 ft 499 kts 168°
2026-05-06 17:18 38.21745 -86.21689 36994 ft 503 kts 168°
2026-05-06 17:19 38.15558 -86.17593 36994 ft 500 kts 168°
2026-05-06 17:19 38.09421 -86.13547 36991 ft 498 kts 168°
2026-05-06 17:20 38.03285 -86.09512 36992 ft 496 kts 168°
2026-05-06 17:20 37.97126 -86.05485 36994 ft 504 kts 168°
2026-05-06 17:21 37.90910 -86.01392 36984 ft 500 kts 168°
2026-05-06 17:21 37.84737 -85.97351 36982 ft 496 kts 168°
2026-05-06 17:22 37.78593 -85.93359 36984 ft 503 kts 168°
2026-05-06 17:22 37.72399 -85.89312 36982 ft 500 kts 167°
2026-05-06 17:23 37.66196 -85.85278 36986 ft 500 kts 168°
2026-05-06 17:23 37.60078 -85.81315 36984 ft 504 kts 168°
2026-05-06 17:24 37.53856 -85.77295 36977 ft 507 kts 167°
2026-05-06 17:24 37.47683 -85.73283 36971 ft 501 kts 167°
2026-05-06 17:25 37.41598 -85.69365 36979 ft 502 kts 167°
2026-05-06 17:25 37.35441 -85.65401 36976 ft 505 kts 167°
2026-05-06 17:26 37.29224 -85.61393 36970 ft 500 kts 167°
2026-05-06 17:26 37.23017 -85.57424 36975 ft 505 kts 167°
2026-05-06 17:27 37.16847 -85.53481 36969 ft 507 kts 167°
2026-05-06 17:27 37.10738 -85.49564 36969 ft 504 kts 167°
2026-05-06 17:28 37.04710 -85.45718 36969 ft 507 kts 167°
2026-05-06 17:28 36.98498 -85.41764 36964 ft 510 kts 167°
2026-05-06 17:29 36.92342 -85.37813 36965 ft 501 kts 167°
2026-05-06 17:29 36.86236 -85.33951 36962 ft 504 kts 167°